Location: Township of Hallet
(38.0877°N, 100.0631°W)
Time: 04:20:37
(UTC+00:00)

Daily predictions for brighter satellites

Satellite Brightness Start Highest point End
(mag) Time Altitude Azimuth Time Altitude Azimuth Time Altitude Azimuth
Cosmos 1689 Rocket 4.1 00:01:43 10° ENE 00:02:32 11° E 00:03:34 10° ESE
Cosmos 1867 4.2 00:00:03 10° S 00:05:01 38° ESE 00:10:01 10° NE
Cosmos 2333 Rocket 4.0 00:01:53 10° WSW 00:06:49 29° WNW 00:11:44 10° N
Cosmos 2341 Rocket 4.5 00:01:28 10° N 00:07:14 37° ENE 00:13:00 10° SE
ISS -2.7 00:04:31 10° WSW 00:07:41 38° NNW 00:10:52 10° NE
Cosmos 372 Rocket 4.4 00:03:46 10° NNW 00:08:53 68° WSW 00:14:01 10° S
NOSS 0 Rocket 4.2 00:05:22 10° SSW 00:11:35 72° WNW 00:17:50 10° NNE
COSMOS 2428 4.2 00:06:52 10° SW 00:12:04 35° WNW 00:17:17 10° N
USA 281 4.0 00:07:21 10° ESE 00:12:41 27° NE 00:18:02 10° N
Cosmos 1939 Rocket 3.7 00:11:24 10° SE 00:14:40 27° ENE 00:17:58 10° NNE
Cosmos 2298 Rocket 4.0 00:09:31 10° NNW 00:14:51 81° ENE 00:20:09 10° SSE
ERS-2 2.3 00:11:18 10° NNE 00:14:52 52° E 00:18:27 10° S
Cosmos 1818 3.7 00:10:54 10° NNW 00:16:13 50° NE 00:21:29 10° SE
Cosmos 2150 Rocket 3.9 00:11:23 10° NNW 00:16:33 76° ENE 00:21:40 10° SSE
CZ-4B R/B 1.1 00:14:09 10° NNE 00:17:11 62° E 00:20:15 10° S
FALCON 9 R/B 1.9 00:15:31 10° SW 00:17:21 23° SSE 00:19:03 13° ESE
Cosmos 2221 4.3 00:13:27 10° SW 00:17:25 34° WNW 00:21:23 10° NNW
TELKOM 3 4.5 00:20:53 10° W 00:23:29 33° NNW 00:25:00 17° NNE
Cosmos 2278 Rocket 2.2 00:18:59 10° NNW 00:24:42 83° ENE 00:30:22 10° SSE
Cosmos 1500 Rocket 4.4 00:20:27 10° NNW 00:24:44 54° W 00:29:02 10° S
YAOGAN 1 4.0 00:32:32 18° NE 00:32:32 18° NE 00:34:37 10° NNE
IRS-1C Rocket 4.4 00:28:26 10° SE 00:33:25 44° ENE 00:38:24 10° N
Cosmos 1125 Rocket 3.4 00:28:14 10° NNW 00:33:27 75° ENE 00:38:38 10° SSE
Cosmos 2181 Rocket 4.2 00:27:51 10° SSE 00:34:04 54° E 00:40:17 10° NNE
SL-8 Rocket 4.2 00:28:11 10° N 00:34:08 46° ENE 00:40:07 10° SSE
Okean-O 3.4 00:34:57 10° SE 00:38:44 28° ENE 00:42:32 10° N
CZ-4B R/B 4.2 00:37:05 10° S 00:42:16 49° W 00:47:25 10° NNW
COSMO-SKYMED 1 2.5 00:41:22 10° NNE 00:45:44 79° ESE 00:50:03 10° S
USA 215 3.9 00:41:40 12° NE 00:47:37 52° NW 00:53:53 10° WSW
Cosmos 2237 Rocket 3.2 00:43:33 10° SW 00:48:53 44° WNW 00:54:16 10° N
SL-24 R/B - RUBIN 2 4.2 00:42:41 10° NNW 00:48:53 86° ENE 00:54:18 10° SSE
Meteor 2-12 Rocket 4.4 00:43:01 10° N 00:49:12 89° W 00:55:19 10° S
NOAA 11 4.5 00:44:26 10° S 00:49:50 70° WSW 00:55:16 10° NNW
Cosmos 1933 3.2 00:47:01 10° S 00:51:01 78° E 00:54:59 10° N
Okean O Rocket 3.2 00:47:15 10° SSW 00:51:15 36° W 00:55:18 10° NNW
X-37B 3.2 00:55:22 10° SSE 00:55:46 11° SSE 00:55:46 11° SSE
SL-24 R/B 3.7 00:52:59 10° NNE 00:57:02 86° ESE 01:00:45 10° S
Sich 1 3.4 00:53:29 10° NNW 00:57:51 65° W 01:02:08 10° S
PSLV R/B 3.7 00:56:29 18° NNE 00:59:24 79° ESE 01:03:26 10° S
USA 81 3.9 00:56:12 10° N 01:01:30 74° E 01:06:46 10° S
EO 1 Delta rocket 4.4 00:57:11 10° NNE 01:02:37 77° E 01:09:30 10° S
Helios 1A Rocket 2.9 01:00:48 10° SSE 01:04:48 53° ENE 01:08:39 10° N
H-2A R/B 2.6 01:06:07 36° NE 01:06:07 36° NE 01:10:22 10° N
Cosmos 2369 Rocket 4.1 01:02:46 10° N 01:03:55 14° NNE 01:03:55 14° NNE
Cosmos 389 Rocket 4.4 01:03:41 10° SW 01:06:43 29° WNW 01:09:46 10° NNW
Cosmos 1151 Rocket 3.1 01:06:45 10° S 01:11:04 78° W 01:14:22 17° N
Cosmos 1782 3.0 01:07:43 10° S 01:10:52 50° SE 01:10:52 50° SE
Cosmos 1666 Rocket 3.8 01:08:49 10° NNW 01:13:12 71° W 01:17:35 10° S
Cosmos 1328 Rocket 3.5 01:10:33 10° S 01:14:50 81° W 01:17:25 24° N
Cosmos 773 Rocket 3.9 01:09:58 10° S 01:15:12 77° ESE 01:17:26 35° NNE
USA 267 3.3 01:15:21 37° E 01:17:49 58° NE 01:24:10 10° NW
Cosmos 2218 Rocket 3.8 01:12:19 10° N 01:18:30 87° E 01:24:39 10° S
SL-24 DEB 4.3 01:20:14 10° N 01:25:00 77° W 01:29:42 10° SSW
ATLAS CENTAUR R/B 4.1 01:06:39 10° NW 01:26:33 61° NNE 01:29:51 41° E
Meteor 1-14 Rocket 4.3 01:22:21 10° N 01:28:14 59° E 01:34:06 10° SSE
Abrixas rocket 4.5 01:25:52 10° WNW 01:26:52 19° WNW 01:26:52 19° WNW
Cosmos 2366 rocket 4.0 01:24:20 10° N 01:30:32 79° W 01:36:40 10° S
Cosmos 2297 3.5 01:25:22 10° NNW 01:31:04 77° ENE 01:32:42 48° SE
Lacrosse 5 rocket 2.0 01:28:40 10° SW 01:31:33 45° W 01:31:33 45° W
MOS 1 Rocket 3.7 01:30:44 19° N 01:34:43 78° WNW 01:40:07 10° SSW
CZ-4 R/B 3.3 01:38:03 21° NNW 01:38:03 21° NNW 01:39:27 10° NNW
SL-16 R/B 2.9 01:30:41 10° SW 01:36:10 52° WNW 01:39:33 23° N
Cosmos 1943 Rocket 3.2 01:32:50 10° NNW 01:35:49 30° N 01:35:49 30° N
SL-23 DEB 4.3 01:34:34 10° WSW 01:38:20 73° NW 01:38:22 73° NNW
CZ-2C R/B 3.4 01:37:27 10° S 01:42:41 64° W 01:47:39 10° NNW
Cosmos 1633 Rocket 4.5 01:40:24 10° NNW 01:44:27 37° W 01:48:26 10° SSW
Cosmos 489 Rocket 4.5 01:44:48 10° SSW 01:50:58 77° WNW 01:52:35 52° N
USA 281 3.7 01:50:21 10° S 01:56:46 56° WSW 02:03:13 10° NNW
Nadezhda 3 Rocket 4.3 02:06:13 10° SSW 02:11:33 63° SW 02:11:33 63° SW
H-2A R/B 4.3 02:46:45 21° WNW 02:46:45 21° WNW 02:49:20 10° NW
SL-16 R/B 3.3 10:33:48 41° ESE 10:33:48 41° ESE 10:37:40 10° SE
ALOS 4.0 10:35:57 10° NNE 10:43:45 14° SSE 10:44:25 10° SSE
ADEOS Rocket 4.4 10:48:23 10° S 10:50:36 25° S 10:50:36 25° S
SL-4 R/B 4.2 11:08:06 18° NE 11:08:06 18° NE 11:09:12 10° NE
Cosmos 2263 Rocket 2.9 11:01:26 10° S 11:06:51 51° ESE 11:12:21 10° NNE
Cosmos 1606 4.4 11:08:23 29° NE 11:09:05 31° ENE 11:12:29 10° SE
NOSS 3-4 (A) 4.3 11:06:03 10° S 11:11:35 45° ESE 11:17:21 10° NE
NOSS 3-4 (C) 4.3 11:06:11 10° S 11:11:42 45° ESE 11:17:28 10° NE
SL-08 ROCKET BODY 4.2 11:07:09 10° SSW 11:13:10 71° W 11:19:19 10° N
Cosmos 2151 3.5 11:10:06 10° S 11:14:11 56° E 11:18:18 10° NNE
ARGOS Delta rocket 3.9 11:09:55 10° NNE 11:15:09 82° ESE 11:20:02 10° S
Cosmos 1745 Rocket 3.8 11:09:55 10° S 11:16:10 82° W 11:22:31 10° N
Lacrosse 4 Rocket 4.3 11:15:39 10° NNE 11:16:58 11° NE 11:18:18 10° ENE
Meteor 1-31 Rocket 3.5 11:14:10 10° NNE 11:17:57 52° E 11:21:40 10° S
USA 276 4.2 11:23:35 26° SE 11:23:35 26° SE 11:25:08 10° SE
SL-8 R/B 3.7 11:24:28 65° SSW 11:24:28 65° SSW 11:28:58 10° SE
Cosmos 1441 Rocket 3.6 11:25:17 10° S 11:29:02 61° E 11:32:47 10° NNE
ATLAS 2AS CENTAUR R/B 3.7 11:23:21 10° SSW 11:31:01 57° ESE 11:38:43 10° NE
CENTAUR R/B 3.7 11:26:29 16° NNW 11:33:23 60° NE 11:42:08 10° SE
USA 234 3.6 11:27:10 10° NE 11:33:39 63° SE 11:40:07 10° SSW
SJ 16-02 2.8 11:30:19 10° S 11:34:23 38° E 11:38:29 10° NNE
FENGYUN 3A 3.6 11:31:45 10° N 11:37:06 63° WNW 11:42:25 10° SSW
CZ-4B R/B 4.0 11:32:46 10° NNE 11:37:10 50° E 11:41:27 10° S
Cosmos 1943 4.2 11:32:36 10° N 11:38:03 44° ENE 11:43:27 10° SE
Atlas Centaur 2 4.1 11:34:18 10° SSW 11:38:30 20° SSE 11:42:06 10° ESE
OAO 3 Rocket 3.4 11:37:47 47° SW 11:38:31 52° S 11:43:06 10° ESE
COSMO-SKYMED 1 3.4 11:34:27 10° SSE 11:38:38 49° ENE 11:42:49 10° N
Cosmos 1709 Rocket 4.0 11:35:41 10° S 11:42:01 89° E 11:48:26 10° N
Cosmos 773 Rocket 3.9 11:41:20 29° NNW 11:44:04 75° WSW 11:49:18 10° S
NOSS 3-2 (A) 4.1 11:39:20 22° NW 11:44:57 85° WSW 11:53:37 10° SSE
Cosmos 2227 4.1 11:45:29 10° SSW 11:51:04 65° WNW 11:56:40 10° NNE
Cosmos 1689 Rocket 3.3 11:49:04 10° SE 11:51:45 39° ENE 11:53:34 18° NNE
